User: anonymous   Login
Location: Unspecified
(0.0000°N, 0.0000°E)
Time: 06:00:19
(UTC+02:00)
Language:

ARIANE 5 R/B - Orbit

View from above orbital plane
View from above orbital plane
View from above satellite
View from above satellite

Ground track
Ground track

The orbit data is extracted from the following two-line orbital elements,

1 28787U 05028B   16209.57026087 -.00000206  00000-0 -81422-4 0  9991
2 28787   6.7157 161.1645 7175583 315.9763 263.0148  2.26570040 90755
Epoch (UTC): 27 July 2016 13:41:10
Eccentricity: 0.7175583
inclination: 6.7157°
perigee height: 538 km
apogee height: 35679 km
right ascension of ascending node: 161.1645°
argument of perigee: 315.9763°
revolutions per day: 2.26570040
mean anomaly at epoch: 263.0148°
orbit number at epoch: 9075

The dashed part of the orbit path shows where the satellite is in the earth's shadow,  

DLR